This demonstration page uses our WeatherBlox Daily Observations layout. Learn more.

Left ArrowRight Arrow

Hourly Observations for November 18, 2021

Temp ( °F °C ) Dew Point ( °F °C ) Humidity (%) Winds ( mph kmh ) Pressure ( in mb ) Visibility ( mi km ) Precip ( " mm )
12:15 am 00:15 Clear 43 6 43 6 100 100 N N/A 30.13 1020 10 16 N/A
12:35 am 00:35 Clear 45 7 43 6 93 93 SW 5 7 30.13 1020 10 16 N/A
12:55 am 00:55 Clear 43 6 43 6 100 100 SSW 5 7 30.13 1020 10 16 N/A
1:15 am 01:15 Clear 43 6 41 5 93 93 SSW 5 7 30.12 1020 10 16 N/A
1:35 am 01:35 Clear 43 6 43 6 100 100 SW 3 6 30.12 1020 10 16 N/A
1:55 am 01:55 Clear 43 6 43 6 100 100 SSW 5 7 30.12 1020 10 16 N/A
2:15 am 02:15 Clear 41 5 41 5 100 100 SW 5 7 30.12 1020 10 16 N/A
2:35 am 02:35 Clear 41 5 41 5 100 100 N N/A 30.12 1020 10 16 N/A
2:55 am 02:55 Clear 41 5 41 5 100 100 SSW 3 6 30.11 1020 10 16 N/A
3:15 am 03:15 Clear 43 6 43 6 100 100 SSW 6 9 30.11 1020 10 16 N/A
3:35 am 03:35 Clear 43 6 41 5 93 93 SW 3 6 30.10 1019 10 16 N/A
3:55 am 03:55 Clear 41 5 41 5 100 100 SW 5 7 30.09 1019 10 16 N/A
4:15 am 04:15 Clear 43 6 43 6 100 100 SW 6 9 30.10 1019 10 16 N/A
4:35 am 04:35 Clear 41 5 41 5 100 100 SW 7 11 30.10 1019 10 16 N/A
4:55 am 04:55 Clear 45 7 45 7 100 100 SW 5 7 30.10 1019 10 16 N/A
5:15 am 05:15 Clear 45 7 45 7 100 100 SW 3 6 30.10 1019 10 16 N/A
5:35 am 05:35 Clear with Mist and Fog 45 7 45 7 100 100 N N/A 30.10 1019 5 8 N/A
5:55 am 05:55 Clear 45 7 45 7 100 100 N N/A 30.09 1019 7 11 N/A
6:15 am 06:15 Clear with Mist and Fog 45 7 45 7 100 100 N N/A 30.09 1019 5 8 N/A
6:35 am 06:35 Clear with Mist and Fog 45 7 45 7 100 100 S 5 7 30.09 1019 5 8 N/A
6:55 am 06:55 Clear 45 7 45 7 100 100 N N/A 30.10 1019 7 11 N/A
7:15 am 07:15 Sunny with Mist and Fog 43 6 43 6 100 100 SSW 5 7 30.10 1019 5 8 N/A
7:35 am 07:35 Sunny with Mist and Fog 43 6 43 6 100 100 SSW 5 7 30.10 1019 5 8 N/A
7:55 am 07:55 Sunny 43 6 43 6 100 100 SSW 3 6 30.10 1019 7 11 N/A
8:15 am 08:15 Sunny 48 9 48 9 100 100 SSW 5 7 30.10 1019 7 11 N/A
8:35 am 08:35 Sunny 52 11 50 10 94 94 S 5 7 30.09 1019 10 16 N/A
8:55 am 08:55 Sunny 54 12 52 11 94 94 SSW 5 7 30.08 1019 10 16 N/A
9:15 am 09:15 Sunny 55 13 52 11 88 88 SSW 5 7 30.09 1019 10 16 N/A
9:35 am 09:35 Sunny 59 15 52 11 77 77 SSW 5 7 30.08 1019 10 16 N/A
9:55 am 09:55 Sunny 63 17 54 12 73 73 S 6 9 30.08 1018 10 16 N/A
10:15 am 10:15 Sunny 64 18 54 12 68 68 S 8 13 30.07 1018 10 16 N/A
10:35 am 10:35 Sunny 66 19 52 11 60 60 S 10 17 30.06 1018 10 16 N/A
10:55 am 10:55 Sunny 68 20 54 12 60 60 SSW 8 13 30.05 1018 10 16 N/A
11:15 am 11:15 Sunny 70 21 52 11 53 53 S 12 19 30.04 1017 10 16 N/A
11:35 am 11:35 Sunny 72 22 52 11 50 50 SW 12 19 30.02 1017 10 16 N/A
11:55 am 11:55 Sunny 72 22 52 11 50 50 SSW 9 15 30.00 1016 10 16 N/A
12:15 pm 12:15 Sunny 72 22 52 11 50 50 SSW 12 19 29.99 1016 10 16 N/A
12:35 pm 12:35 Sunny 72 22 52 11 50 50 SSW 14 22 29.99 1016 10 16 N/A
12:55 pm 12:55 Sunny 73 23 52 11 47 47 SSW 15 24 29.97 1015 10 16 N/A
1:15 pm 13:15 Sunny 73 23 52 11 47 47 SSW 12 19 29.96 1014 10 16 N/A
1:35 pm 13:35 Sunny 73 23 52 11 47 47 SSW 12 19 29.96 1014 10 16 N/A
1:55 pm 13:55 Sunny 73 23 52 11 47 47 SW 13 20 29.95 1014 10 16 N/A
2:15 pm 14:15 Sunny 73 23 52 11 47 47 SSW 14 22 29.94 1014 10 16 N/A
2:35 pm 14:35 Partly Cloudy 73 23 50 10 44 44 SSW 15 24 29.93 1013 10 16 N/A
2:55 pm 14:55 Mostly Cloudy 72 22 52 11 50 50 SSW 13 20 29.94 1014 10 16 N/A
3:15 pm 15:15 Cloudy 72 22 50 10 47 47 SSW 9 15 29.94 1014 10 16 N/A
3:35 pm 15:35 Cloudy 72 22 52 11 50 50 SW 9 15 29.94 1014 10 16 N/A
3:55 pm 15:55 Cloudy 72 22 50 10 47 47 SW 6 9 29.94 1014 10 16 N/A
4:15 pm 16:15 Cloudy 72 22 50 10 47 47 WSW 8 13 29.94 1014 10 16 N/A
4:35 pm 16:35 Cloudy 70 21 52 11 53 53 WNW 5 7 29.94 1014 10 16 N/A
4:55 pm 16:55 Cloudy with Light Rain 68 20 54 12 60 60 NNW 7 11 29.94 1014 10 16 N/A
5:15 pm 17:15 Cloudy with Light Rain 66 19 55 13 68 68 WNW 8 13 29.96 1015 10 16 N/A
5:35 pm 17:35 Cloudy with Light Rain 64 18 57 14 78 78 WNW 8 13 29.97 1015 10 16 N/A
5:55 pm 17:55 Cloudy with Light Rain 63 17 59 15 88 88 NNW 22 35 30.00 1016 10 16 N/A
6:15 pm 18:15 Cloudy with Light Rain 55 13 52 11 88 88 NW 18 30 30.03 1017 10 16 N/A
6:35 pm 18:35 Cloudy with Light Rain 55 13 50 10 82 82 NNW 20 31 30.04 1017 10 16 N/A
6:55 pm 18:55 Cloudy with Rain 54 12 48 9 82 82 NNW 15 24 30.06 1018 10 16 N/A
7:15 pm 19:15 Cloudy 54 12 48 9 82 82 NW 14 22 30.08 1019 10 16 N/A
7:35 pm 19:35 Cloudy 54 12 46 8 77 77 N 20 31 30.08 1019 10 16 N/A
7:55 pm 19:55 Cloudy 52 11 45 7 77 77 NNW 16 26 30.09 1019 10 16 N/A
8:15 pm 20:15 Cloudy with Rain 52 11 37 3 58 58 NW 24 39 30.09 1019 10 16 N/A
8:35 pm 20:35 Cloudy with Light Rain 48 9 36 2 62 62 NW 21 33 30.12 1020 10 16 N/A
8:55 pm 20:55 Cloudy 48 9 32 undefined 54 54 NW 24 39 30.12 1020 10 16 N/A
9:15 pm 21:15 Cloudy 48 9 32 undefined 54 54 NW 16 26 30.15 1021 10 16 N/A
9:35 pm 21:35 Cloudy 48 9 32 undefined 54 54 NW 18 30 30.16 1021 10 16 N/A
9:55 pm 21:55 Mostly Cloudy 46 8 32 undefined 57 57 NW 21 33 30.18 1022 10 16 N/A
10:15 pm 22:15 Partly Cloudy 46 8 32 undefined 57 57 NNW 12 19 30.18 1022 10 16 N/A
10:55 pm 22:55 Clear 45 7 32 undefined 61 61 NNW 16 26 30.19 1022 10 16 N/A
11:15 pm 23:15 Clear 45 7 32 undefined 61 61 NW 15 24 30.19 1022 10 16 N/A
11:35 pm 23:35 Partly Cloudy 45 7 32 undefined 61 61 NW 15 24 30.20 1023 10 16 N/A
11:55 pm 23:55 Partly Cloudy 45 7 32 undefined 61 61 NW 17 28 30.19 1022 10 16 N/A

Powered by AerisWeather